Retour au catalogue

NAVIGATOR

ActifRadio amateurSSO
NORAD 69888·PAYLOAD·🇺🇸 United States
Ce nom de satellite n'a pas encore été confirmé par des sources officielles.

Lancé Jul 7, 2026 depuis Vandenberg Space Force Base

Loading…

Prochains Passages (prochaines 24 heures)

TLE

FraisSource: Space-Track

Époque: Sep 14, 2026, 04:17 UTC

1 69888U 26156V   26257.17872861  .00001451  00000-0  15047-3 0  9992
2 69888  97.7485 156.4653 0003250 285.0817  75.0042 14.91510114 10109

Suivez NAVIGATOR en temps réel avec AllMySat

Download on the App Store